Home   Weather   Hannover   Past weeks

Flag for Germany Past Weather in Hannover, Lower Saxony, Germany — Yesterday and Last 2 Weeks

36 °F


Feels Like: 36 °F
Forecast: 42 / 50 °F
Wind: 1 mph from North

Location: Hannover

Current Time: Oct 26, 2016 at 12:44:15 AM

Latest Report: Oct 26, 2016 at 12:20 AM

Visibility: 0 mi

Pressure: 30.33 "Hg

Humidity: 100%

Dew Point: 36 °F

Location of HannoverLocation

Past Weather in Hannover — Graph


Hannover Temperature Yesterday

Maximum temperature yesterday: 48 °F (at 2:50 PM)
Minimum temperature yesterday: 37 °F (at 10:50 PM)
Average temperature yesterday: 45 °F

High & Low Weather Summary for the Past Weeks

High63 °F (Oct 16, 1:20 PM)100% (Oct 10, 11:20 PM)30.33 "Hg (Oct 10, 11:20 PM)
Low32 °F (Oct 23, 7:50 AM)50% (Oct 23, 2:20 PM)29.74 "Hg (Oct 15, 5:20 AM)
Average47 °F89%30.03 "Hg
* Reported Oct 10 11:20 PM — Oct 25 11:20 PM, Hannover, Weather by CustomWeather, © 2016

Note: Actual official high and low records may vary slightly from our data, if they occured in-between our weather recording intervals... More about our weather records


Hannover Weather History for the Previous 24 Hours

Scroll right to see more
Time TempWeatherWind HumidityBarometerVisibility
11:20 PM
Tue, Oct 25
37 °FFog.No wind100%30.33 "Hg0 mi
10:50 PM37 °FFog.No wind100%30.33 "Hg0 mi
10:20 PM39 °FFog.1 mph93%30.33 "Hg0 mi
9:50 PM39 °FFog.1 mph100%30.30 "Hg0 mi
9:20 PM41 °FFog.2 mph100%30.30 "Hg1 mi
8:50 PM41 °FQuite cool.5 mph100%30.30 "Hg1 mi
8:20 PM45 °FPassing clouds.3 mph93%30.30 "HgN/A
7:50 PM46 °FPassing clouds.2 mph87%30.30 "HgN/A
7:20 PM46 °FPassing clouds.3 mph87%30.30 "HgN/A
6:50 PM46 °FPassing clouds.6 mph87%30.27 "HgN/A
6:20 PM46 °FPassing clouds.6 mph87%30.27 "HgN/A
5:50 PM48 °FPartly sunny.7 mph87%30.27 "HgN/A
5:20 PM48 °FPartly sunny.5 mph87%30.24 "Hg5 mi
4:50 PM48 °FPartly sunny.5 mph87%30.24 "Hg4 mi
4:20 PM48 °FBroken clouds.5 mph94%30.24 "Hg4 mi
3:50 PM48 °FBroken clouds.5 mph94%30.21 "Hg4 mi
3:20 PM48 °FBroken clouds.5 mph87%30.21 "Hg4 mi
2:50 PM48 °FFog.6 mph94%30.21 "Hg3 mi
2:20 PM46 °FFog.6 mph93%30.21 "Hg3 mi
1:50 PM46 °FDrizzle. Fog.6 mph93%30.18 "Hg2 mi
1:20 PM46 °FDrizzle. Fog.7 mph93%30.18 "Hg1 mi
12:50 PM46 °FDrizzle. Fog.8 mph93%30.18 "Hg1 mi
12:20 PM46 °FDrizzle. Fog.7 mph93%30.18 "Hg1 mi
11:50 AM46 °FDrizzle. Fog.6 mph93%30.18 "Hg1 mi
11:20 AM46 °FDrizzle. Fog.6 mph93%30.18 "Hg1 mi
10:50 AM46 °FDrizzle. Fog.5 mph93%30.15 "Hg2 mi
10:20 AM46 °FDrizzle. Fog.5 mph93%30.15 "Hg2 mi
9:50 AM46 °FDrizzle. Fog.3 mph93%30.12 "Hg2 mi
9:20 AM46 °FDrizzle. Fog.1 mph93%30.12 "Hg2 mi
8:50 AM45 °FDrizzle. Fog.2 mph100%30.12 "Hg1 mi
8:20 AM45 °FDrizzle. Fog.2 mph100%30.09 "Hg1 mi
7:50 AM45 °FDrizzle. Fog.5 mph100%30.09 "Hg1 mi
7:20 AM45 °FDrizzle. Fog.5 mph100%30.07 "Hg1 mi
6:50 AM45 °FDrizzle. Fog.5 mph100%30.07 "Hg1 mi
6:20 AM45 °FDrizzle. Fog.6 mph100%30.07 "Hg1 mi
5:50 AM45 °FDrizzle. Fog.2 mph100%30.07 "Hg1 mi
5:20 AM45 °FDrizzle. Fog.3 mph100%30.04 "Hg1 mi
4:50 AM45 °FDrizzle. Fog.6 mph100%30.04 "Hg1 mi
4:20 AM45 °FLight rain. Fog.5 mph100%30.04 "Hg2 mi
3:50 AM45 °FLight rain. Fog.7 mph100%30.04 "Hg2 mi
3:20 AM45 °FFog.8 mph100%30.04 "Hg1 mi
2:50 AM45 °FFog.8 mph100%30.04 "Hg1 mi
2:20 AM45 °FFog.7 mph100%30.04 "Hg1 mi
1:50 AM45 °FFog.7 mph100%30.04 "Hg2 mi
1:20 AM46 °FDrizzle. Fog.5 mph93%30.04 "Hg2 mi
12:50 AM46 °FDrizzle. Fog.8 mph93%30.01 "Hg2 mi
12:20 AM46 °FDrizzle. Fog.8 mph93%30.01 "Hg2 mi
Weather by CustomWeather, © 2016

See weather overviewHow to use our weather pages